| time (UTC) | temp F | wind direction | speed MPH | gust MPH | rain 1hr in | rain 24hr in | rain mn in | humidity % | barometer mb |
| 20260509230159 | 73 | 36 | 3.0 | 10.0 | 0.00 | 0.00 | 0.00 | 34 | 1015.6 |
| 20260509224557 | 73 | 285 | 6.0 | 10.0 | 0.00 | 0.00 | 0.00 | 29 | 1015.7 |
| 20260509223055 | 74 | 330 | 2.0 | 7.0 | 0.00 | 0.00 | 0.00 | 29 | 1015.8 |
| 20260509221552 | 72 | 298 | 6.0 | 10.0 | 0.00 | 0.00 | 0.00 | 33 | 1016.0 |
| 20260509220050 | 74 | 353 | 3.0 | 6.0 | 0.00 | 0.00 | 0.00 | 32 | 1016.2 |
| 20260509214545 | 73 | 124 | 1.0 | 6.0 | 0.00 | 0.00 | 0.00 | 33 | 1016.3 |
| 20260509213045 | 72 | 219 | 4.0 | 7.0 | 0.00 | 0.00 | 0.00 | 34 | 1016.5 |
| 20260509211541 | 72 | 259 | 3.0 | 8.0 | 0.00 | 0.00 | 0.00 | 36 | 1016.6 |
| 20260509210049 | 71 | 101 | 0.0 | 7.0 | 0.00 | 0.00 | 0.00 | 40 | 1016.8 |
| 20260509204536 | 70 | 304 | 6.0 | 10.0 | 0.00 | 0.00 | 0.00 | 39 | 1017.0 |
| 20260509203035 | 70 | 311 | 4.0 | 8.0 | 0.00 | 0.00 | 0.00 | 39 | 1017.0 |
| 20260509201531 | 69 | 72 | 0.0 | 5.0 | 0.00 | 0.00 | 0.00 | 42 | 1017.3 |
| 20260509200031 | 68 | 319 | 4.0 | 7.0 | 0.00 | 0.00 | 0.00 | 44 | 1017.4 |
| 20260509194527 | 69 | 199 | 3.0 | 7.0 | 0.00 | 0.00 | 0.00 | 44 | 1017.6 |
| 20260509193024 | 67 | 53 | 2.0 | 12.0 | 0.00 | 0.00 | 0.00 | 46 | 1017.7 |
| 20260509191526 | 67 | 264 | 3.0 | 6.0 | 0.00 | 0.00 | 0.00 | 47 | 1018.1 |
| 20260509190020 | 66 | 224 | 4.0 | 9.0 | 0.00 | 0.00 | 0.00 | 49 | 1018.4 |
| 20260509184529 | 66 | 139 | 3.0 | 8.0 | 0.00 | 0.00 | 0.00 | 48 | 1018.5 |
| 20260509183016 | 64 | 330 | 3.0 | 9.0 | 0.00 | 0.00 | 0.00 | 49 | 1018.6 |
| 20260509181514 | 64 | 295 | 3.0 | 9.0 | 0.00 | 0.00 | 0.00 | 51 | 1018.9 |
| 20260509180013 | 64 | 321 | 6.0 | 11.0 | 0.00 | 0.00 | 0.00 | 51 | 1018.9 |
| 20260509174513 | 63 | 281 | 2.0 | 8.0 | 0.00 | 0.00 | 0.00 | 52 | 1019.0 |
| 20260509173044 | 63 | 269 | 4.0 | 7.0 | 0.00 | 0.00 | 0.00 | 51 | 1019.0 |
| 20260509171521 | 64 | 93 | 1.0 | 4.0 | 0.00 | 0.00 | 0.00 | 52 | 1019.0 |
| 20260509170012 | 62 | 89 | 3.0 | 6.0 | 0.00 | 0.00 | 0.00 | 53 | 1019.3 |
| 20260509164504 | 61 | 273 | 2.0 | 5.0 | 0.00 | 0.00 | 0.00 | 55 | 1019.5 |
| 20260509163003 | 60 | 176 | 2.0 | 6.0 | 0.00 | 0.00 | 0.00 | 56 | 1019.5 |
| 20260509161501 | 60 | 234 | 1.0 | 7.0 | 0.00 | 0.00 | 0.00 | 58 | 1019.7 |
| 20260509154559 | 59 | 273 | 2.0 | 5.0 | 0.00 | 0.00 | 0.00 | 58 | 1019.7 |
| 20260509153056 | 59 | 108 | 2.0 | 4.0 | 0.00 | 0.00 | 0.00 | 60 | 1019.5 |
| 20260509151615 | 58 | 124 | 1.0 | 3.0 | 0.00 | 0.00 | 0.00 | 60 | 1019.4 |
| 20260509150053 | 56 | 105 | 3.0 | 5.0 | 0.00 | 0.00 | 0.00 | 63 | 1019.5 |
| 20260509144547 | 55 | 77 | 3.0 | 6.0 | 0.00 | 0.00 | 0.00 | 65 | 1019.4 |
| 20260509143057 | 54 | 77 | 4.0 | 10.0 | 0.00 | 0.00 | 0.00 | 68 | 1019.3 |
| 20260509141550 | 53 | 113 | 3.0 | 13.0 | 0.00 | 0.00 | 0.00 | 68 | 1019.3 |
| 20260509140045 | 51 | 85 | 5.0 | 8.0 | 0.00 | 0.00 | 0.00 | 70 | 1019.3 |
| 20260509134546 | 50 | 95 | 6.0 | 10.0 | 0.00 | 0.00 | 0.00 | 72 | 1019.3 |
| 20260509133043 | 49 | 82 | 7.0 | 10.0 | 0.00 | 0.00 | 0.00 | 74 | 1019.3 |
| 20260509131555 | 0 | 0.0 | 0.0 | 0.00 | 0.00 | 0.00 | 1019.2 | ||
| 20260509130056 | 0 | 0.0 | 0.0 | 0.00 | 0.00 | 0.00 | 1019.2 | ||
| 20260509124534 | 0 | 0.0 | 0.0 | 0.00 | 0.00 | 0.00 | 1019.1 | ||
| 20260509123044 | 0 | 0.0 | 0.0 | 0.00 | 0.00 | 0.00 | 1019.1 | ||
| 20260509121522 | 0 | 0.0 | 0.0 | 0.00 | 0.00 | 0.00 | 1019.0 | ||
| 20260509120024 | 0 | 0.0 | 0.0 | 0.00 | 0.00 | 0.00 | 1018.9 | ||
| 20260509114518 | 0 | 0.0 | 0.0 | 0.00 | 0.00 | 0.00 | 1019.0 | ||
| 20260509113009 | 0 | 0.0 | 0.0 | 0.00 | 0.00 | 0.00 | 1019.0 | ||
| 20260509111505 | 0 | 0.0 | 0.0 | 0.00 | 0.00 | 0.00 | 1019.1 | ||
| 20260509104556 | 0 | 0.0 | 0.0 | 0.00 | 0.00 | 0.00 | 1019.0 | ||
| 20260509103100 | 51 | 231 | 3.0 | 8.0 | 0.00 | 0.00 | 0.00 | 68 | 1019.0 |
| 20260509101600 | 51 | 201 | 4.0 | 8.0 | 0.00 | 0.00 | 0.00 | 69 | 1018.9 |
| 20260509100048 | 52 | 212 | 3.0 | 5.0 | 0.00 | 0.00 | 0.00 | 67 | 1018.8 |
| 20260509094550 | 52 | 224 | 3.0 | 5.0 | 0.00 | 0.00 | 0.00 | 68 | 1018.8 |
| 20260509093046 | 52 | 222 | 4.0 | 8.0 | 0.00 | 0.00 | 0.00 | 67 | 1018.7 |
| 20260509091544 | 52 | 141 | 3.0 | 7.0 | 0.00 | 0.00 | 0.00 | 67 | 1018.6 |
| 20260509090043 | 53 | 204 | 4.0 | 6.0 | 0.00 | 0.00 | 0.00 | 64 | 1018.6 |
| 20260509084536 | 55 | 221 | 4.0 | 8.0 | 0.00 | 0.00 | 0.00 | 62 | 1018.4 |
| 20260509083035 | 55 | 224 | 4.0 | 7.0 | 0.00 | 0.00 | 0.00 | 61 | 1018.4 |
| 20260509081532 | 54 | 131 | 2.0 | 8.0 | 0.00 | 0.00 | 0.00 | 62 | 1018.4 |
| 20260509080029 | 55 | 252 | 4.0 | 8.0 | 0.00 | 0.00 | 0.00 | 61 | 1018.2 |
| 20260509074527 | 55 | 210 | 4.0 | 6.0 | 0.00 | 0.00 | 0.00 | 61 | 1018.3 |
| 20260509073025 | 56 | 229 | 3.0 | 7.0 | 0.00 | 0.00 | 0.00 | 59 | 1018.1 |
| 20260509071520 | 55 | 208 | 3.0 | 6.0 | 0.00 | 0.00 | 0.00 | 59 | 1017.8 |
| 20260509070017 | 55 | 250 | 3.0 | 6.0 | 0.00 | 0.00 | 0.00 | 59 | 1017.7 |
| 20260509064516 | 55 | 196 | 3.0 | 5.0 | 0.00 | 0.00 | 0.00 | 59 | 1017.7 |
| 20260509063014 | 56 | 271 | 4.0 | 7.0 | 0.00 | 0.00 | 0.00 | 58 | 1017.7 |
| 20260509061516 | 56 | 222 | 4.0 | 7.0 | 0.00 | 0.00 | 0.00 | 56 | 1017.8 |
| 20260509060012 | 56 | 236 | 3.0 | 7.0 | 0.00 | 0.00 | 0.00 | 56 | 1017.6 |
| 20260509054510 | 57 | 222 | 5.0 | 8.0 | 0.00 | 0.00 | 0.00 | 54 | 1017.4 |
| 20260509053012 | 58 | 229 | 5.0 | 7.0 | 0.00 | 0.00 | 0.00 | 52 | 1017.3 |
| 20260509051507 | 59 | 245 | 6.0 | 10.0 | 0.00 | 0.00 | 0.00 | 50 | 1017.1 |
| 20260509050004 | 59 | 248 | 7.0 | 14.0 | 0.00 | 0.00 | 0.00 | 49 | 1016.9 |
| 20260509044501 | 60 | 245 | 7.0 | 13.0 | 0.00 | 0.00 | 0.00 | 47 | 1016.8 |
| 20260509043059 | 60 | 238 | 10.0 | 14.0 | 0.00 | 0.00 | 0.00 | 46 | 1016.5 |
| 20260509041600 | 61 | 212 | 10.0 | 16.0 | 0.00 | 0.00 | 0.00 | 44 | 1016.5 |
| 20260509040055 | 62 | 232 | 10.0 | 17.0 | 0.00 | 0.00 | 0.00 | 43 | 1016.1 |
| 20260509034553 | 61 | 243 | 9.0 | 13.0 | 0.00 | 0.00 | 0.00 | 44 | 1015.7 |
| 20260509033051 | 62 | 240 | 9.0 | 13.0 | 0.00 | 0.00 | 0.00 | 43 | 1015.4 |
| 20260509031604 | 63 | 235 | 6.0 | 13.0 | 0.00 | 0.00 | 0.00 | 41 | 1015.3 |
| 20260509030048 | 64 | 248 | 7.0 | 13.0 | 0.00 | 0.00 | 0.00 | 39 | 1014.8 |
| 20260509024546 | 66 | 259 | 7.0 | 18.0 | 0.00 | 0.00 | 0.00 | 37 | 1014.6 |
| 20260509023045 | 67 | 274 | 19.0 | 24.0 | 0.00 | 0.00 | 0.00 | 35 | 1014.2 |
| 20260509021545 | 68 | 264 | 14.0 | 19.0 | 0.00 | 0.00 | 0.00 | 34 | 1014.2 |
| 20260509020048 | 68 | 277 | 16.0 | 27.0 | 0.00 | 0.00 | 0.00 | 34 | 1014.0 |
| 20260509014545 | 69 | 288 | 17.0 | 27.0 | 0.00 | 0.00 | 0.00 | 32 | 1013.9 |
| 20260509013044 | 70 | 260 | 17.0 | 23.0 | 0.00 | 0.00 | 0.00 | 28 | 1013.9 |
| 20260509011546 | 71 | 275 | 16.0 | 23.0 | 0.00 | 0.00 | 0.00 | 28 | 1013.9 |
| 20260509010046 | 71 | 257 | 15.0 | 22.0 | 0.00 | 0.00 | 0.00 | 27 | 1013.9 |
| 20260509004541 | 71 | 277 | 18.0 | 30.0 | 0.00 | 0.00 | 0.00 | 26 | 1013.9 |
| 20260509003045 | 71 | 266 | 25.0 | 34.0 | 0.00 | 0.00 | 0.00 | 27 | 1013.7 |
| 20260509001538 | 72 | 259 | 18.0 | 31.0 | 0.00 | 0.00 | 0.00 | 24 | 1013.9 |
| 20260509000043 | 71 | 271 | 17.0 | 29.0 | 0.00 | 0.00 | 0.00 | 22 | 1013.9 |
| 20260508234537 | 72 | 270 | 20.0 | 30.0 | 0.00 | 0.00 | 0.00 | 24 | 1013.9 |
| 20260508233036 | 72 | 252 | 22.0 | 29.0 | 0.00 | 0.00 | 0.00 | 18 | 1013.9 |
| 20260508231536 | 72 | 278 | 21.0 | 33.0 | 0.00 | 0.00 | 0.00 | 18 | 1013.8 |